Regional Weather Roundup
Issued by NWS

Home | Current Version | Previous Version | Text Only | Print | Product List | Glossary Off
Versions: 1 2 3 4 5 6 7 8 9 10 11 12 13 14 15 16 17 18 19 20 21 22 23 24 25 26 27 28 29 30 31 32 33 34 35 36 37 38 39 40 41 42 43 44 45 46 47 48 49 50

276
ASUS45 KABQ 241910
RWRNM
NEW MEXICO REGIONAL WEATHER ROUNDUP
NATIONAL WEATHER SERVICE ALBUQUERQUE NM
100 PM MDT MON APR 24 2017

NOTE: "FAIR" MEANS FEW OR NO CLOUDS BELOW 12,000 FEET AGL WITH NO
       SIGNIFICANT WEATHER OR OBSTRUCTIONS TO VISION.

      THIS PRODUCT IS RELEASED AS TWO VERSIONS.  ONE VERSION NEAR
      THE TOP OF THE HOUR CONTAINING PRELIMINARY DATA FROM ALBUQUERQUE
      AND OTHER STATIONS.  A FINAL VERSION WITH ADDITIONAL DATA IS
      ISSUED ABOUT 10 MINUTES AFTER THE HOUR.

NMZ501-503-504-510>518-242000-
NORTHWEST PLATEAU/NORTHCENTRAL MOUNTAINS

CITY           SKY/WX    TMP DP  RH WIND       PRES   REMARKS
FARMINGTON     FAIR      68  21  16 SW12      29.78F
LOS ALAMOS     FAIR      66  13  13 W22G32    29.88F
SANTA FE       FAIR      73  15  11 W24G35    29.83F
TAOS             N/A     66  19  16 W22G32    29.85S
ANGEL FIRE     FAIR      60  19  21 W26G52    29.85F

$$
NMZ402-403-502-505>509-242000-
WESTCENTRAL MOUNTAINS/SOUTHWEST MOUNTAINS

CITY           SKY/WX    TMP DP  RH WIND       PRES   REMARKS
GALLUP         FAIR      71  21  15 SW25G38   29.87F
GRANTS         FAIR      71  15  12 W23G33    29.90F
SILVER CITY    FAIR      76  16  10 W24G31    29.94F

$$
NMZ407-409-411-412-242000-
SOUTHERN DESERTS

CITY           SKY/WX    TMP DP  RH WIND       PRES   REMARKS
DEMING         FAIR      84  15   7 W22G32    29.88F
LAS CRUCES     FAIR      84  17   8 W20G29    29.88F
HOLLOMAN AFB   FAIR      84  12   6 W26       29.85F
ALAMOGORDO     FAIR      84  16   8 W20G31    29.84F
T OR C         FAIR      83  11   6 W18G28    29.82F

$$
NMZ519>523-242000-
CENTRAL VALLEYS/CENTRAL HIGHLANDS

CITY           SKY/WX    TMP DP  RH WIND       PRES   REMARKS
ALBUQUERQUE    PTSUNNY   76  18  11 W15G26    29.82F
DOUBLE EAGLE   PTSUNNY   73  27  17 SW23G36   29.86F
MORIARTY ARPT  FAIR      75  23  14 W20G32    29.86F
CLINES CORNERS FAIR      69  21  16 W37G55    29.83F
BELEN          FAIR      80  15   8 SW15G25   29.82F
SOCORRO        FAIR      83  16   8 S7G21     29.79F

$$
NMZ524>526-539-540-242000-
SOUTHCENTRAL MOUNTAINS

CITY           SKY/WX    TMP DP  RH WIND       PRES   REMARKS
RUIDOSO        FAIR      73  10   9 SW29G44   29.92F

$$
NMZ527>531-242000-
NORTHEAST HIGHLANDS/NORTHEAST PLAINS

CITY           SKY/WX    TMP DP  RH WIND       PRES   REMARKS
LAS VEGAS      FAIR      73  10   9 W33G44    29.78F
RATON          NOT AVBL
CLAYTON        FAIR      77  17  10 SW23G29   29.66F

$$
NMZ532>537-242000-
EASTCENTRAL PLAINS

CITY           SKY/WX    TMP DP  RH WIND       PRES   REMARKS
SANTA ROSA     FAIR      81  20  10 W23G41    29.71F
TUCUMCARI      FAIR      87  19   8 SW30G45   29.63F
CANNON AFB     FAIR      84  26  11 SW28G33   29.71F
CLOVIS AIRPORT FAIR      84  34  16 W29       29.72F

$$
NMZ028-029-538-242000-
SOUTHEAST PLAINS

CITY           SKY/WX    TMP DP  RH WIND       PRES   REMARKS
ROSWELL        FAIR      91  19   7 W28G33    29.71F
ARTESIA        FAIR      90  21   8 SW33G40   29.72F
CARLSBAD       FAIR      92  14   5 W30G38    29.73F
HOBBS          SUNNY     86  27  11 SW25G35   29.76F


$$




USA.gov is the U.S. government's official web portal to all federal, state and local government web resources and services.